User: anonymous   Login
Location: Unspecified
(0.0000°N, 0.0000°E)
Time: 21:17:02
(UTC+00:00)
Language:

Kosmos-1553 - Orbit

View from above orbital plane
View from above orbital plane
View from above satellite
View from above satellite

Ground track
Ground track

The orbit data is extracted from the following two-line orbital elements,

1 14973U 84046A   17141.72882003 +.00000025 +00000-0 +99038-5 0  9991
2 14973 082.9366 190.7051 0032865 159.0953 340.4774 13.75305416656235
Epoch (UTC): 21 May 2017 17:29:30
Eccentricity: 0.0032865
inclination: 82.9366°
perigee height: 956 km
apogee height: 1005 km
right ascension of ascending node: 190.7051°
argument of perigee: 159.0953°
revolutions per day: 13.75305416
mean anomaly at epoch: 340.4774°
orbit number at epoch: 65623

The dashed part of the orbit path shows where the satellite is in the earth's shadow,  

DLR